FLOCK 2K-12 (42893 NORAD) Tracking and Keplerian Element Data

This shows tracking and keplerian element data for the satellite.

Feedback or suggestion? Click here.




ElementValue
Catalog42893
NameFLOCK 2K-12
Epoch Orbit27639
Epoch Day164.10154776
Epoch Year2022
RAAN5.6113
Inclination96.7966
Eccentricity0.0009924
Argument of Perigee240.8695
Mean Anonmoly119.159
Mean Motion15.96569853
Decay Rate0.01135228
L11 42893U 17042BW 22164.10154776 .01135228 62327-3 27217-2 0 9992
L22 42893 96.7966 5.6113 0009924 240.8695 119.1590 15.96569853276395



Live tracking and technical data element details for FLOCK 2K-12 (NORAD 42893). FLOCK 2K-12 can be tracked NOW for your location showing map with azimuth and elevation plus other details from your city location.







IsCatalogInMostPopularTable: catalog: 42893, numindb: 631
Update: records affected: 1



GetName: 42893 FLOCK 2K-12

Hit Count: updated at: Sat, 17 May 2025 10:02:15 GMT